Вернуться в каталог

STARLINK-2217

АктивенСвязьVLEO
NORAD 48568·PAYLOAD·🇺🇸 United States

Запущен May 15, 2021 с Cape Canaveral Space Force Station

Loading…

Ближайшие Пролёты (ближайшие 24 часа)

TLE

СвежийSource: CelesTrak SupGP

Эпоха: Sep 15, 2026, 02:25 UTC

1 48568C 21041R   26258.10118056  .00044350  00000+0  14252-2 0  2583
2 48568  53.1587 325.6645 0001018  88.5989  99.1587 15.31701525    10

Отслеживайте STARLINK-2217 в реальном времени с AllMySat

Download on the App Store